Andrews, TX

7:44 AM CDT on August 27, 2016 (GMT -0500)
Andrews

Weather History for KE11 - March, 2013

Change the Weather History Date:

Saturday, March 23, 2013

  Actual Average (KMAF) Record (KMAF)
Temperature  
Mean Temperature 56 °F 57 °F  
Max Temperature 76 °F 72 °F 90 °F (1998)
Min Temperature 36 °F 43 °F 20 °F (1952)
Degree Days  
Heating Degree Days 9 8  
Month to date heating degree days 248  
Since 1 July heating degree days 2485  
Cooling Degree Days 0 1  
Month to date cooling degree days 6  
Year to date cooling degree days 8  
Growing Degree Days 6 (Base 50)    
Moisture  
Dew Point 24 °F    
Average Humidity 43    
Maximum Humidity 88    
Minimum Humidity 6    
Precipitation  
Precipitation 0.00 in 0.02 in 0.35 in (2008)
Month to date precipitation 0.43  
Year to date precipitation 1.70  
Snow  
Snow 0.00 in - - ()
Month to date snowfall  
Since 1 July snowfall  
Snow Depth -    
Sea Level Pressure  
Sea Level Pressure 29.77 in    
Wind  
Wind Speed 13 mph (WNW)    
Max Wind Speed 39 mph    
Max Gust Speed 50 mph    
Visibility 9 miles    
Events      
T = Trace of Precipitation, MM = Missing Value Source: NWS Daily Summary

Daily Weather History Graph

Daily Weather History Graph

Search for Another Location

Airport or City:

Trip Planner

Search our weather history database for the weather conditions in past years. The results will help you decide how hot, cold, wet, or windy it might be!

Date:

Astronomy

Mar. 23, 2013 Rise Set
Actual Time 7:49 AM CDT 8:03 PM CDT
Civil Twilight 7:25 AM CDT 8:28 PM CDT
Nautical Twilight 6:56 AM CDT 8:57 PM CDT
Astronomical Twilight 6:27 AM CDT 9:26 PM CDT
Moon 4:43 PM CDT (3/23) 5:15 AM CDT (3/23)
Length of Visible Light 13h 03m
Length of Day
12h 14m
Waxing Gibbous, 85% of the Moon is Illuminated
Mar 23
Waxing Gibbous
Mar 27
Full
Apr 2
Last Quarter
Apr 10
New
Apr 18
First Quarter

Hourly Weather History & Observations

Time (CDT) Temp. Windchill Dew Point Humidity Pressure Visibility Wind Dir Wind Speed Gust Speed Precip Events Conditions
12:15 AM 51.4 °F - 38.3 °F 61% 29.78 in 10.0 mi East 10.4 mph - N/A   Scattered Clouds
12:35 AM 50.4 °F - 38.3 °F 63% 29.78 in 10.0 mi East 9.2 mph - N/A   Scattered Clouds
12:55 AM 49.3 °F - 38.3 °F 66% 29.78 in 10.0 mi ESE 10.4 mph - N/A   Clear
1:15 AM 48.4 °F - 38.3 °F 68% 29.78 in 10.0 mi ESE 11.5 mph - N/A   Clear
1:35 AM 47.5 °F - 38.3 °F 70% 29.78 in 10.0 mi ESE 13.8 mph - N/A   Clear
1:55 AM 46.8 °F - 38.3 °F 72% 29.78 in 10.0 mi ESE 5.8 mph - N/A   Clear
2:15 AM 46.8 °F - 38.1 °F 72% 29.78 in 10.0 mi East 8.1 mph - N/A   Clear
2:35 AM 46.4 °F 43.5 °F 37.8 °F 72% 29.78 in 10.0 mi East 5.8 mph - N/A   Clear
3:15 AM 45.1 °F 42.0 °F 37.4 °F 74% 29.78 in 10.0 mi East 5.8 mph - N/A   Clear
3:35 AM 43.9 °F 41.3 °F 37.2 °F 77% 29.78 in 10.0 mi East 4.6 mph - N/A   Clear
3:55 AM 42.8 °F - 36.5 °F 78% 29.78 in 10.0 mi Calm Calm - N/A   Clear
4:15 AM 41.7 °F 39.8 °F 35.8 °F 79% 29.76 in 10.0 mi NE 3.5 mph - N/A   Clear
4:35 AM 41.4 °F 39.4 °F 36.0 °F 81% 29.76 in 10.0 mi ESE 3.5 mph - N/A   Clear
4:55 AM 40.1 °F - 35.1 °F 82% 29.76 in 10.0 mi Calm Calm - N/A   Clear
5:15 AM 39.4 °F - 35.1 °F 84% 29.75 in 10.0 mi Calm Calm - N/A   Clear
5:35 AM 40.3 °F 38.2 °F 35.6 °F 83% 29.75 in 10.0 mi East 3.5 mph - N/A   Clear
5:55 AM 40.6 °F 37.5 °F 36.1 °F 84% 29.74 in 10.0 mi ESE 4.6 mph - N/A   Clear
6:15 AM 40.1 °F 38.0 °F 36.0 °F 85% 29.74 in 10.0 mi SE 3.5 mph - N/A   Clear
6:35 AM 39.0 °F 34.0 °F 35.4 °F 87% 29.74 in 10.0 mi South 6.9 mph - N/A   Clear
6:55 AM 37.8 °F - 34.2 °F 87% 29.75 in 10.0 mi Calm Calm - N/A   Clear
7:15 AM 37.0 °F 32.4 °F 33.3 °F 86% 29.77 in 10.0 mi North 5.8 mph - N/A   Clear
7:35 AM 36.7 °F 30.5 °F 33.4 °F 88% 29.77 in 10.0 mi NNW 8.1 mph - N/A   Clear
8:15 AM 37.9 °F - 34.7 °F 88% 29.78 in 10.0 mi Calm Calm - N/A   Clear
8:35 AM 40.1 °F 36.9 °F 35.8 °F 85% 29.79 in 10.0 mi NNW 4.6 mph - N/A   Clear
8:55 AM 41.2 °F - 36.3 °F 83% 29.79 in 10.0 mi Calm Calm - N/A   Clear
9:15 AM 43.7 °F - 37.0 °F 77% 29.79 in 10.0 mi Calm Calm - N/A   Clear
9:35 AM 45.9 °F 44.6 °F 38.1 °F 74% 29.79 in 10.0 mi WSW 3.5 mph - N/A   Clear
9:55 AM 50.0 °F - 38.5 °F 65% 29.79 in 10.0 mi SW 8.1 mph - N/A   Clear
10:15 AM 54.7 °F - 38.5 °F 54% 29.79 in 10.0 mi SW 11.5 mph - N/A   Clear
10:35 AM 59.5 °F - 37.6 °F 44% 29.78 in 10.0 mi West 12.7 mph 17.3 mph N/A   Clear
10:55 AM 65.1 °F - 34.9 °F 33% 29.78 in 10.0 mi WSW 11.5 mph 18.4 mph N/A   Clear
11:15 AM 67.6 °F - 31.6 °F 26% 29.78 in 10.0 mi West 20.7 mph 28.8 mph N/A   Clear
11:35 AM 68.7 °F - 31.1 °F 25% 29.77 in 10.0 mi West 24.2 mph 33.4 mph N/A   Clear
11:55 AM 69.3 °F - 30.9 °F 24% 29.77 in 10.0 mi West 21.9 mph 32.2 mph N/A   Clear
12:15 PM 70.7 °F - 30.6 °F 23% 29.76 in 10.0 mi West 26.5 mph 34.5 mph N/A   Clear
12:35 PM 71.8 °F - 28.4 °F 20% 29.75 in 10.0 mi North - - N/A   Clear
12:55 PM 72.7 °F - 22.5 °F 15% 29.74 in 10.0 mi West 20.7 mph 25.3 mph N/A   Clear
1:15 PM 73.0 °F - 24.4 °F 16% 29.73 in 10.0 mi WNW 19.6 mph 29.9 mph N/A   Clear
1:35 PM 73.6 °F - 23.2 °F 15% 29.73 in 10.0 mi West 20.7 mph 33.4 mph N/A   Clear
1:55 PM 74.1 °F - 24.3 °F 16% 29.72 in 10.0 mi West 21.9 mph 29.9 mph N/A   Clear
2:15 PM 75.2 °F - 23.2 °F 14% 29.71 in 10.0 mi West 24.2 mph 31.1 mph N/A   Clear
2:35 PM 75.0 °F - 20.7 °F 13% 29.70 in 10.0 mi West 15.0 mph 29.9 mph N/A   Clear
2:55 PM 75.2 °F - 18.5 °F 12% 29.70 in 10.0 mi West 28.8 mph 40.3 mph N/A   Clear
3:15 PM 75.6 °F - 19.6 °F 12% 29.69 in 10.0 mi West 24.2 mph 33.4 mph N/A   Clear
3:35 PM 75.6 °F - 18.3 °F 12% 29.67 in 10.0 mi West 20.7 mph 39.1 mph N/A   Clear
3:55 PM 76.6 °F - 15.1 °F 10% 29.67 in 10.0 mi West 31.1 mph 38.0 mph N/A   Clear
4:15 PM 76.5 °F - 13.3 °F 9% 29.65 in 10.0 mi West 19.6 mph 40.3 mph N/A   Clear
4:35 PM 76.6 °F - 13.6 °F 9% 29.66 in 10.0 mi West 25.3 mph 36.8 mph N/A   Clear
4:55 PM 76.3 °F - 11.5 °F 8% 29.65 in 7.0 mi West 24.2 mph - N/A   Clear
5:15 PM 76.3 °F - 9.5 °F 8% 29.65 in 10.0 mi West 25.3 mph 34.5 mph N/A   Clear
5:35 PM 75.9 °F - 7.7 °F 7% 29.66 in 10.0 mi West 26.5 mph 35.7 mph N/A   Clear
5:55 PM 75.2 °F - 7.3 °F 7% 29.66 in 10.0 mi West 27.6 mph 44.9 mph N/A   Clear
6:15 PM 75.2 °F - 8.4 °F 8% 29.65 in 10.0 mi West 19.6 mph 38.0 mph N/A   Clear
6:35 PM 74.7 °F - 7.7 °F 8% 29.66 in 10.0 mi West 19.6 mph 35.7 mph N/A   Clear
6:55 PM 74.3 °F - 7.9 °F 8% 29.66 in 10.0 mi West 25.3 mph 34.5 mph N/A   Clear
7:15 PM 73.6 °F - 8.1 °F 8% 29.67 in 10.0 mi West 18.4 mph 38.0 mph N/A   Clear
7:35 PM 73.0 °F - 5.4 °F 7% 29.68 in 7.0 mi West 20.7 mph 28.8 mph N/A   Scattered Clouds
7:55 PM 72.3 °F - 1.4 °F 6% 29.74 in 7.0 mi NNW 39.1 mph 49.5 mph N/A   Mostly Cloudy
8:15 PM 63.1 °F - -0.2 °F 8% 29.76 in 2.5 mi NNW 33.4 mph 44.9 mph N/A   Haze
8:35 PM 59.7 °F - 0.5 °F 9% 29.81 in 3.0 mi North 33.4 mph 46.0 mph N/A   Haze
8:55 PM 57.6 °F - 0.3 °F 10% 29.84 in 3.0 mi North 32.2 mph 42.6 mph N/A   Haze
9:15 PM 54.7 °F - -4.9 °F 9% 29.87 in 3.0 mi North 31.1 mph 43.7 mph N/A   Haze
9:35 PM 52.7 °F - -9.9 °F 7% 29.89 in 2.5 mi North 29.9 mph 46.0 mph N/A   Haze
9:55 PM 51.8 °F - -8.9 °F 8% 29.91 in 2.5 mi North 28.8 mph 40.3 mph N/A   Haze
10:15 PM 48.0 °F - 17.2 °F 29% 29.94 in 3.0 mi North 29.9 mph 38.0 mph N/A   Haze
10:35 PM 44.4 °F 34.7 °F 23.7 °F 44% 29.98 in 3.0 mi NNE 28.8 mph 36.8 mph N/A   Haze
10:55 PM 41.7 °F 30.8 °F 24.3 °F 50% 29.99 in 4.0 mi NNE 29.9 mph 36.8 mph N/A   Haze
11:15 PM 40.3 °F 29.1 °F 23.4 °F 51% 30.01 in 4.0 mi North 28.8 mph 39.1 mph N/A   Haze
11:35 PM 39.4 °F 29.2 °F 23.7 °F 54% 30.03 in 4.0 mi NNE 21.9 mph 34.5 mph N/A   Haze
11:55 PM 37.4 °F 25.2 °F 22.3 °F 54% 30.04 in 5.0 mi NNE 28.8 mph 35.7 mph N/A   Haze